Location: El Descanso
(21.4500°N, 77.9500°W)
Time: 01:27:50
(UTC+00:00)

Daily predictions for brighter satellites

Satellite Brightness Start Highest point End
(mag) Time Altitude Azimuth Time Altitude Azimuth Time Altitude Azimuth
STARLINK-1199 3.7 00:05:07 10° SSW 00:09:10 57° SE 00:13:13 10° NE
Hubble Space Telescope 1.7 00:05:20 10° W 00:09:21 49° NNW 00:13:22 10° ENE
Centaur AC-125 3.2 00:08:10 10° WNW 00:10:33 41° N 00:15:41 10° ENE
Cosmos 494 Rocket 4.0 00:07:05 10° NNW 00:12:15 80° ENE 00:17:22 10° SSE
Cosmos 1269 Rocket 4.4 00:07:32 10° N 00:12:35 46° ENE 00:17:37 10° SSE
STARLINK-1210 3.6 00:10:01 10° SSW 00:14:06 66° SE 00:18:12 10° NE
STARLINK-1219 3.5 00:14:57 10° SSW 00:19:04 76° SE 00:23:12 10° NE
Cosmos 1844 4.0 00:14:17 10° S 00:19:34 45° ESE 00:24:55 10° NNE
STARLINK-1185 4.4 00:16:49 10° NNW 00:19:46 26° NE 00:22:36 11° ESE
STARLINK-1186 4.4 00:17:57 10° NNW 00:20:55 27° NE 00:23:43 11° ESE
Cosmos 44 4.2 00:16:48 10° N 00:21:08 32° ENE 00:25:31 11° SE
MOS 1 Rocket 4.1 00:19:45 10° NE 00:23:21 25° E 00:26:53 10° SSE
Atlas Centaur 2 3.6 00:15:59 10° WNW 00:23:31 49° SSW 00:31:41 10° SE
STARLINK-1196 4.3 00:20:33 10° NNW 00:23:36 30° NE 00:26:18 12° ESE
Cosmos 1725 Rocket 4.2 00:17:41 10° N 00:23:51 78° W 00:30:03 10° S
CZ-2D R/B 4.4 00:20:12 10° S 00:23:53 45° W 00:27:36 10° NNW
STARLINK-1211 3.6 00:19:54 10° SW 00:24:02 87° SE 00:28:10 10° NE
Meteor 1-27 Rocket 3.9 00:18:27 10° S 00:24:18 66° E 00:30:08 10° NNE
NOSS 2-3 (D) 4.3 00:21:58 10° S 00:25:31 27° ESE 00:29:03 10° NE
H-2A R/B 2.5 00:22:46 10° SE 00:27:18 38° ENE 00:31:54 10° N
STARLINK-1181 4.1 00:24:50 10° NNW 00:28:00 34° NE 00:30:32 14° ESE
STARLINK-1245 3.7 00:24:54 10° SW 00:29:01 81° NW 00:33:09 10° NE
STARLINK-1183 4.0 00:26:02 10° NNW 00:29:14 35° NE 00:31:43 15° ESE
CZ-2C R/B 3.5 00:24:49 10° SE 00:29:40 43° ENE 00:34:47 10° N
CSL-04 Rocket 3.9 00:25:23 10° S 00:30:46 77° WSW 00:36:16 10° NNW
BREEZE-M DEB (TANK) 2.6 00:29:38 10° N 00:31:22 25° NE 00:32:57 15° ESE
STARLINK-1233 3.9 00:29:52 10° SW 00:33:59 71° NW 00:38:05 10° NNE
CZ-4 R/B 3.5 00:31:00 10° SSW 00:34:33 28° W 00:38:10 10° NW
deb FW4D 4.4 00:32:54 10° SW 00:35:04 40° SSE 00:36:10 20° E
USA 229 DEB 3.6 00:28:43 10° SSW 00:35:07 88° WNW 00:41:43 10° NNE
USA 229 3.6 00:28:51 10° SSW 00:35:14 88° WNW 00:41:49 10° NNE
STARLINK-1194 3.6 00:33:42 10° NNW 00:37:01 45° NE 00:39:12 19° ESE
STARLINK-1193 3.6 00:35:01 10° NNW 00:38:20 47° NE 00:40:29 19° ESE
STARLINK-1204 4.2 00:34:53 10° SW 00:38:57 61° NW 00:43:03 10° NNE
STARLINK-1184 3.5 00:36:18 10° NNW 00:39:40 49° NE 00:41:46 20° ESE
HJ-1C 3.6 00:37:37 10° S 00:40:55 69° W 00:44:11 10° NNW
STARLINK-1127 3.4 00:37:39 10° NNW 00:41:01 51° NE 00:43:04 21° ESE
STARLINK-1176 3.3 00:37:49 10° NNW 00:41:26 64° NE 00:43:47 20° SE
STARLINK-1142 3.4 00:39:00 10° NNW 00:42:23 54° NE 00:44:23 22° ESE
NOSS 3-1 (C) 3.6 00:38:27 10° SW 00:43:31 62° WNW 00:49:03 10° NNE
STARLINK-1137 3.3 00:40:22 10° NNW 00:43:46 57° NE 00:45:44 23° ESE
STARLINK-1238 4.5 00:39:53 10° SW 00:43:55 54° NW 00:47:58 10° NNE
NOSS 3-1 (A) 3.0 00:39:37 10° SSW 00:44:42 67° ESE 00:50:12 10° NNE
STARLINK-1195 3.3 00:41:45 10° NNW 00:45:10 60° NE 00:47:05 24° SE
STARLINK-1179 3.2 00:42:45 10° NW 00:46:24 76° NE 00:48:34 23° SE
STARLINK-1152 3.2 00:43:09 10° NNW 00:46:35 63° NE 00:48:27 24° SE
GPS 2-12 Rocket1 4.4 00:48:26 10° SSW 00:51:33 19° SSE 00:52:00 18° SSE
Cosmos 389 Rocket 3.5 00:51:41 24° E 00:51:43 24° E 00:54:33 10° NE
Delta 198 3.4 00:49:14 10° W 00:53:38 74° NNW 00:56:30 17° ENE
Cosmos 405 Rocket 2.9 00:50:06 10° N 00:54:06 78° W 00:57:54 11° S
NOSS 2-3 (C) 3.3 00:52:00 10° SSW 00:56:11 74° ESE 01:00:25 10° NNE
IRS-1A Rocket 4.4 00:51:25 12° SSE 00:56:51 68° ENE 01:02:37 10° N
Ariane Rocket 2.9 00:53:44 13° SSE 00:58:11 75° ENE 01:03:15 10° N
Okean 1 4.2 00:59:05 27° E 00:59:25 28° E 01:02:52 10° NNE
Genesis I 3.2 00:55:42 10° NNW 00:59:27 58° ENE 01:00:56 33° SE
Cosmos 2251 Rocket 4.3 00:57:05 10° N 01:01:45 33° ENE 01:03:27 26° ESE
DMSP B5D2-2 4.0 00:56:34 10° NNE 01:01:50 73° ESE 01:07:04 10° S
Cosmos 1500 3.9 00:58:51 10° NNW 01:02:36 53° W 01:06:19 10° S
Milstar 3 Cent rocket 4.4 00:57:19 10° S 01:03:29 25° SE 01:13:47 10° E
Cosmos 2242 Rocket 3.6 01:00:31 17° SSE 01:03:47 55° E 01:08:05 10° NNE
Sakura Rocket 4.4 01:03:10 10° SW 01:10:01 69° SSE 01:19:26 10° ENE
DELTA 2 R/B (1) 4.0 01:04:41 10° NW 01:10:06 51° NNE 01:12:44 28° E
GPS 2-04 Rocket1 2.2 01:06:49 10° WSW 01:10:20 86° SSE 01:11:56 31° ENE
FREGAT/IRIS 2.4 01:10:27 58° SSW 01:10:47 69° W 01:13:26 10° NNW
Cosmos 2056 Rocket 3.7 01:09:34 25° SSE 01:12:01 43° E 01:16:49 10° NNE
ARGOS 3.2 01:09:36 16° S 01:13:59 81° WSW 01:19:21 10° NNW
Cosmos 1943 3.9 01:09:45 10° NNW 01:15:10 50° WSW 01:20:00 13° S
SL-08 RB Rocket 3.6 01:13:12 30° SSE 01:15:31 77° ENE 01:20:08 10° N
Tsikada Rocket 4.1 01:13:07 23° SSE 01:16:50 51° E 01:22:47 10° NNE
CZ-2C R/B 4.0 01:13:10 10° N 01:17:37 67° WNW 01:22:07 10° SSW
Cosmos 2346 Rocket 4.3 01:16:08 10° S 01:22:10 82° E 01:28:15 10° N
ATLAS 3B CENTAUR R/B 3.6 01:06:49 10° SW 01:23:43 65° SSE 01:28:41 25° E
Cosmos 1666 2.7 01:21:02 10° N 01:24:52 76° W 01:25:49 48° SSW
CZ-2C R/B 3.0 01:19:18 10° N 01:24:53 70° WNW 01:30:26 10° SSW
ASTRO E2 4.5 01:21:34 10° SW 01:23:02 19° SSW 01:23:02 19° SSW
Cosmos 1536 2.9 01:21:58 10° N 01:26:00 77° W 01:27:14 43° S
Meteor 1-19 Rocket 4.3 01:25:35 42° SE 01:26:48 49° E 01:32:11 10° NNE
SJ-6B 3.0 01:27:16 43° SSW 01:28:18 63° WSW 01:32:01 10° NNW
Cosmos 2278 Rocket 2.4 01:29:04 44° ESE 01:29:22 44° ESE 01:34:42 10° NNE
IUS-1 SRM-2 3.4 01:29:19 10° WNW 01:30:53 24° NNW 01:30:53 24° NNW
USA 186 3.9 01:32:42 16° W 01:32:42 16° W 01:34:00 10° NW
ASTEX 1 3.3 01:30:33 37° S 01:32:31 84° W 01:37:24 10° N
GPS 2-18 Rocket1 3.1 01:30:34 10° W 01:34:20 77° WSW 01:34:20 77° WSW
STARLINK-1153 4.5 01:31:56 10° NNW 01:35:31 38° NE 01:35:31 38° NE
Meteor 1-18 Rocket 4.0 01:34:06 33° S 01:36:40 80° E 01:42:14 10° N
STARLINK-1132 4.4 01:36:50 10° NNW 01:40:18 42° NNE 01:40:18 42° NNE
Okean 1-7 2.9 01:42:11 77° SW 01:42:25 83° W 01:46:43 10° N
STARLINK-1177 4.4 01:41:46 10° NNW 01:45:05 44° NNE 01:45:05 44° NNE
Cosmos 1733 Rocket 4.4 01:43:02 10° NNW 01:47:01 36° W 01:48:47 25° SW
OAO 2 Rocket 4.2 01:42:43 10° WNW 01:47:37 38° SW 01:47:57 38° SSW
STARLINK-1167 4.4 01:46:42 10° NNW 01:49:53 46° N 01:49:53 46° N
Hubble Space Telescope 2.3 01:47:16 10° WNW 01:50:55 30° N 01:51:32 28° NNE
Resurs 01 Rocket 2.2 01:51:58 47° NNE 01:51:58 47° NNE 01:55:21 10° N
SPOT 3 Rocket 3.6 01:53:37 61° SSW 01:54:23 72° WSW 01:59:31 10° NNW
STARLINK-1168 4.5 01:51:38 10° NNW 01:54:39 45° NNW 01:54:39 45° NNW
NATO 3D Rocket 3.7 01:52:10 10° W 01:59:44 80° S 02:00:06 76° SE
Meteor 2-4 Rocket 4.1 02:05:03 50° NE 02:05:03 50° NE 02:09:06 10° NNE
Cosmos 1607 4.1 02:20:42 10° NNW 02:26:48 70° W 02:26:48 70° W
Milstar 3 Cent rocket 4.3 03:31:42 10° WSW 03:42:29 83° SSE 04:07:24 10° ENE
ATLAS 3B R/B 4.1 06:29:11 10° N 06:34:07 33° NE 06:34:07 33° NE
CENTAUR R/B 4.1 06:31:14 10° NNW 06:36:06 39° NNW 06:36:06 39° NNW
CZ-4C R/B 4.3 07:06:15 19° NNE 07:06:15 19° NNE 07:07:44 10° NNE
Cosmos 1980 Rocket 3.7 07:19:01 30° ENE 07:19:01 30° ENE 07:22:21 10° NE
Cosmos 2219 4.4 07:23:29 10° N 07:27:40 38° NE 07:27:40 38° NE
Cosmos 2278 4.5 07:41:54 47° NNE 07:41:54 47° NNE 07:45:50 10° NNE
Cosmos 2297 Rocket 3.0 07:38:37 10° N 07:44:02 47° ENE 07:44:13 47° ENE
SL-08 R/B 4.5 07:51:07 40° ENE 07:51:07 40° ENE 07:55:02 10° N
SL-16 R/B 4.1 07:56:22 21° NW 07:56:22 21° NW 07:58:28 10° NNW
Cosmos 489 Rocket 4.5 07:53:26 75° NE 07:53:26 75° NE 07:59:13 10° NNE
Cosmos 2074 Rocket 4.0 07:54:33 79° NNE 07:54:33 79° NNE 08:00:25 10° N
Palapa 6 Rocket 4.4 08:04:01 59° S 08:04:24 60° SSE 08:11:56 10° E
Cosmos 2184 Rocket 3.9 08:06:16 73° NW 08:06:16 73° NW 08:12:05 10° N
H-2A R/B 4.0 08:04:22 20° ESE 08:06:05 26° ENE 08:09:41 10° NNE
Cosmos 1697 Rocket 4.2 08:10:09 24° NW 08:10:09 24° NW 08:13:20 10° N
USA 234 3.3 08:05:56 10° NNE 08:12:21 61° NW 08:13:10 57° W
Cosmos 2058 4.4 08:13:34 31° ESE 08:13:55 31° E 08:17:38 10° NNE
SL-16 R/B 3.5 08:12:45 25° SE 08:14:52 33° ESE 08:19:53 10° NE
ADEOS II 3.8 08:15:25 10° NNW 08:17:53 21° NW 08:17:53 21° NW
Cosmos 2227 Rocket 2.0 08:13:59 10° NNW 08:19:40 89° WSW 08:20:30 66° SSE
GPS 2-14 Rocket1 4.3 08:22:53 28° E 08:22:53 28° E 08:24:48 10° E
Cosmos 2327 Rocket 4.4 08:21:56 62° SSW 08:23:03 78° W 08:29:28 10° N
Lacrosse 4 Rocket 4.5 08:21:08 10° NNE 08:23:34 15° ENE 08:25:58 10° E
NOSS 2-1 (D) 4.3 08:24:58 39° E 08:24:58 39° E 08:27:33 10° NE
Cosmos 1610 Rocket 4.3 08:23:22 62° SSW 08:24:26 82° W 08:30:34 10° N
STARLINK-1283 4.4 08:30:04 42° NNE 08:30:04 42° NNE 08:32:39 10° NNE
ARIANE 5 R/B 3.6 08:24:58 10° N 08:28:16 29° NW 08:28:16 29° NW
SJ 16-02 3.5 08:25:59 10° NNW 08:26:56 16° NW 08:26:56 16° NW
MSX 3.9 08:28:19 10° NNE 08:34:03 74° ESE 08:36:29 36° S
ERS-2 3.3 08:37:29 34° NNW 08:37:29 34° NNW 08:39:38 10° NNW
CZ-3A R/B 4.1 08:33:44 17° SSE 08:36:47 24° SE 08:48:29 10° E
Iridium 2 4.3 08:33:48 10° N 08:36:38 50° N 08:36:38 50° N
Cosmos 2154 Rocket 4.0 08:36:21 49° SW 08:37:53 64° W 08:44:08 10° N
Cosmos 1898 Rocket 3.7 08:33:10 10° NNW 08:37:42 49° WNW 08:37:42 49° WNW
STARLINK-1316 4.4 08:40:33 33° NNE 08:40:33 33° NNE 08:42:28 10° NNE
STARLINK-1257 4.4 08:41:24 34° NNE 08:41:24 34° NNE 08:43:21 10° NNE
STARLINK-1256 4.3 08:42:18 34° NNE 08:42:18 34° NNE 08:44:16 10° NNE
Cosmos 1842 Rocket 3.9 08:37:21 10° N 08:41:47 65° E 08:44:10 26° SSE
STARLINK-1213 4.3 08:43:08 35° NNE 08:43:08 35° NNE 08:45:08 10° NNE
STARLINK-62 3.9 08:43:39 47° NE 08:43:39 47° NE 08:46:02 10° NE
STARLINK-1263 4.3 08:44:00 35° N 08:44:00 35° N 08:46:01 10° NNE
STARLINK-1259 4.2 08:44:52 35° N 08:44:52 35° N 08:46:55 10° NNE
Meteor 1-27 4.1 08:38:38 10° N 08:44:12 89° W 08:48:08 20° S
STARLINK-1265 4.2 08:45:26 35° N 08:45:26 35° N 08:47:30 10° NNE
STARLINK-34 3.7 08:45:23 50° NE 08:45:23 50° NE 08:47:50 10° NE
STARLINK-1285 4.2 08:45:43 35° N 08:45:43 35° N 08:47:47 10° NNE
IDEFIX/ARIANE 42P 2.7 08:39:46 10° N 08:44:52 53° WNW 08:45:41 48° WSW
Skynet4D Del rocket 4.0 08:42:58 34° WNW 08:45:08 56° N 08:50:24 10° ENE
STARLINK-1296 4.1 08:47:27 35° N 08:47:27 35° N 08:49:34 10° NNE
IRIDIUM 104 4.3 08:45:34 51° SW 08:46:35 62° W 08:51:44 10° N
STARLINK-1260 4.1 08:48:19 36° N 08:48:19 36° N 08:50:28 10° NNE
STARLINK-1268 4.1 08:48:54 35° N 08:48:54 35° N 08:51:03 10° NNE
Cosmos 1937 Rocket 3.4 08:42:57 10° NNW 08:48:08 62° WSW 08:50:10 36° SSW
STARLINK-1318 4.1 08:49:10 36° N 08:49:10 36° N 08:51:21 10° NNE
STARLINK-1275 4.1 08:50:03 35° N 08:50:03 35° N 08:52:15 10° NNE
STARLINK-1029 3.5 08:49:47 51° E 08:49:47 51° E 08:52:32 10° NE
STARLINK-1309 4.1 08:50:55 35° N 08:50:55 35° N 08:53:08 10° NNE
STARLINK-48 3.6 08:50:04 58° SSE 08:50:30 64° SE 08:54:20 10° NE
STARLINK-1282 4.1 08:51:48 35° NNW 08:51:48 35° NNW 08:54:02 10° NNE
STARLINK-1291 3.9 08:52:01 39° NNW 08:52:01 39° NNW 08:54:35 10° NNE
STARLINK-1313 4.3 08:52:58 29° NNW 08:52:58 29° NNW 08:55:05 10° NNE
STARLINK-1264 3.9 08:53:29 37° NNW 08:53:29 37° NNW 08:56:01 10° NNE
STARLINK-1279 4.3 08:53:49 29° NNW 08:53:49 29° NNW 08:55:57 10° NNE
STARLINK-1311 4.4 08:54:20 26° NNW 08:54:20 26° NNW 08:56:13 10° NNE
Cosmos 2360 Rocket 3.9 08:48:56 10° SSE 08:53:40 28° ESE 08:58:23 10° NE
STARLINK-1298 4.0 08:54:25 34° NNW 08:54:25 34° NNW 08:56:43 10° NNE
STARLINK-1267 4.0 08:54:52 37° NNW 08:54:52 37° NNW 08:57:27 10° NNE
STARLINK-1293 4.0 08:55:15 34° NNW 08:55:15 34° NNW 08:57:35 10° NNE
Cosmos 962 Rocket 4.3 08:51:16 26° S 08:54:54 80° W 09:01:01 10° N
STARLINK-1272 4.0 08:56:14 36° NNW 08:56:14 36° NNW 08:58:51 10° NNE
STARLINK-1255 4.1 08:56:59 33° NNW 08:56:59 33° NNW 08:59:22 10° NNE
STARLINK-1207 4.0 08:57:37 35° NNW 08:57:37 35° NNW 09:00:16 10° NNE
Cosmos 1076 Rocket 3.5 08:57:06 48° SW 08:58:02 62° W 09:02:21 10° N
STARLINK-1266 4.0 08:59:03 33° NW 08:59:03 33° NW 09:01:44 10° NNE
STARLINK-1284 4.1 09:00:30 32° NW 09:00:30 32° NW 09:03:14 10° NNE
ADEOS 4.1 08:55:10 10° NNE 09:00:17 57° ESE 09:05:14 11° S
Landsat 5 3.5 08:57:22 20° S 09:00:24 79° WSW 09:04:55 10° NNW
Cosmos 1980 Rocket 3.8 09:00:48 17° WNW 09:01:10 17° WNW 09:04:48 10° NNW
STARLINK-1258 4.1 09:01:53 31° NW 09:01:53 31° NW 09:04:38 10° NNE
Cosmos 2285 Rocket 4.1 08:56:39 10° NNW 09:02:47 54° W 09:08:51 10° S
STARLINK-1292 4.2 09:03:21 30° NW 09:03:21 30° NW 09:06:09 10° NNE
Meteor 2-2 Rocket 4.5 08:57:43 10° N 09:03:45 79° E 09:09:43 10° S
STARLINK-1274 4.2 09:04:50 29° NW 09:04:50 29° NW 09:07:41 10° NNE
CZ-2C R/B 2.7 08:59:47 10° NNE 09:04:57 72° ESE 09:09:37 13° S
STARLINK-1289 4.3 09:06:20 27° NW 09:06:21 27° NW 09:09:12 10° NNE
Cosmos 1892 3.0 09:06:42 41° W 09:07:04 43° W 09:10:43 10° N
STARLINK-1303 4.3 09:07:45 26° NW 09:07:51 27° NW 09:10:42 10° NNE
CZ-4C R/B 3.4 09:08:13 42° W 09:08:13 42° W 09:11:30 10° NNW
STARLINK-1312 4.4 09:09:15 25° NW 09:09:25 25° NW 09:12:11 10° N
SWIFT 2.6 09:12:25 35° WSW 09:13:34 45° SSW 09:17:34 10° ESE
NOSS 2-1 (E) 3.7 09:13:03 34° W 09:13:42 37° WNW 09:16:53 10° N
STARLINK-1286 4.2 09:13:15 23° SSW 09:15:34 53° SE 09:19:38 10° NE
STARLINK-1299 3.8 09:14:47 27° SSW 09:17:00 71° SE 09:21:11 10° NE
STARLINK-1304 4.2 09:15:26 22° SSW 09:17:52 52° SE 09:21:54 10° NE
BREEZE-M DEB (TANK) 3.7 09:18:51 21° WSW 09:23:14 55° NW 09:26:31 10° NNE
Cosmos 1869 3.5 09:19:45 10° NNW 09:23:28 46° W 09:26:17 16° SSW
Cosmos 2341 Rocket 4.3 09:19:35 17° SSW 09:24:22 47° W 09:30:29 10° N
STARLINK-1306 3.7 09:22:44 21° SSW 09:25:25 74° SE 09:29:35 10° NE
Cosmos 2366 rocket 3.9 09:19:50 10° S 09:25:59 88° W 09:32:12 10° N
STARLINK-1234 3.5 09:25:34 24° W 09:26:47 33° SW 09:29:38 10° SSE
Nadezhda 3 Rocket 4.3 09:21:08 10° NNW 09:27:05 46° W 09:33:06 10° SSW
Cosmos 2297 Rocket 4.0 09:24:50 10° WNW 09:25:53 12° W 09:25:53 12° W
STARLINK-1212 2.8 09:25:09 10° NW 09:28:11 55° SW 09:31:12 10° SSE
STARLINK-1105 2.8 09:25:37 10° NW 09:28:38 54° SW 09:31:39 10° SSE
STARLINK-1247 2.9 09:26:32 10° NW 09:29:34 52° SW 09:32:36 10° SSE
STARLINK-1228 3.8 09:27:26 15° WNW 09:29:41 30° SW 09:32:39 10° S
STARLINK-1227 2.9 09:27:00 10° NW 09:30:00 51° SW 09:33:00 10° SSE
STARLINK-1209 3.8 09:29:18 24° W 09:30:06 28° SW 09:32:52 10° S
Cosmos 2221 3.2 09:26:16 10° NNW 09:30:12 34° W 09:33:29 14° SSW
PSLV R/B 4.4 09:26:40 10° NNW 09:30:22 31° WNW 09:32:32 19° WSW
Shenzhou-11 Module 2.6 09:29:42 26° WNW 09:30:24 31° NW 09:32:39 10° NNE
GPS 2-04 Rocket1 3.5 09:28:31 19° W 09:30:49 33° SW 09:34:37 10° SSE
SAR-Lupe-4 3.5 09:27:21 10° S 09:30:51 58° WSW 09:34:23 10° NNW
STARLINK-1226 2.9 09:27:51 10° NW 09:30:52 50° SW 09:33:52 10° SSE
Cosmos 2322 Rocket 2.5 09:27:36 18° SW 09:31:40 49° WNW 09:37:06 10° N
Cosmos 2082 4.4 09:26:53 10° NW 09:31:46 31° WSW 09:36:37 10° SSW
STARLINK-1215 3.0 09:28:49 10° NW 09:31:50 48° SW 09:34:49 10° SSE
SJ-6F 4.3 09:28:16 10° N 09:32:23 78° W 09:36:26 10° SSW
STARLINK-1217 3.1 09:30:36 10° NW 09:33:34 45° SW 09:36:34 10° SSE
Cosmos 1766 Rocket 3.6 09:29:49 10° S 09:34:13 82° E 09:38:35 10° N
STARLINK-1229 3.1 09:31:31 10° NW 09:34:30 43° SW 09:37:28 10° SSE
STARLINK-1270 3.2 09:32:24 10° NW 09:35:22 42° SW 09:38:19 10° SSE
Meteor 1-31 Rocket 3.3 09:31:47 10° NNE 09:35:31 59° E 09:39:16 10° S
Cosmos 2151 3.0 09:31:45 11° SSW 09:35:42 56° W 09:39:53 10° N
Fermi 3.8 09:33:56 18° W 09:36:55 75° NNW 09:40:57 10° ENE
STARLINK-1189 3.2 09:34:16 10° NW 09:37:11 39° SW 09:40:07 10° SSE
Cosmos 372 Rocket 4.2 09:32:36 10° NNW 09:37:30 47° WSW 09:42:25 10° S
STARLINK-1281 3.6 09:34:34 17° SW 09:37:45 88° NW 09:41:53 10° NE
STARLINK-1188 3.3 09:35:10 10° NW 09:38:05 38° SW 09:41:00 10° SSE
STARLINK-1235 3.9 09:36:04 10° WNW 09:38:41 25° SW 09:41:17 10° S
STARLINK-1187 3.6 09:36:22 10° WNW 09:39:08 30° SW 09:41:54 10° S
STARLINK-1191 3.4 09:37:40 10° WNW 09:40:31 35° SW 09:43:22 10° SSE
STARLINK-1221 3.5 09:38:32 10° WNW 09:41:22 34° SW 09:44:14 10° SSE
H-2A R/B 3.6 09:41:27 15° WSW 09:41:57 15° W 09:44:23 10° WNW
STARLINK-1222 3.5 09:39:28 10° WNW 09:42:17 33° SW 09:45:06 10° SSE
STARLINK-1231 4.4 09:38:28 10° NNW 09:42:32 56° NE 09:46:35 10° SE
STARLINK-1310 3.6 09:39:22 15° SW 09:42:43 77° NW 09:46:52 10° NE
STARLINK-1214 3.5 09:40:23 10° WNW 09:43:10 31° SW 09:45:58 10° S
Cosmos 2263 Rocket 3.1 09:37:53 10° N 09:43:20 52° ENE 09:48:42 10° SSE
Cosmos 1315 Rocket 3.7 09:41:21 10° NNW 09:44:44 28° W 09:48:08 10° SSW
H-2A R/B 4.0 09:41:11 10° NNE 09:45:11 38° E 09:49:17 10° S
Cosmos 1689 Rocket 3.1 09:43:39 10° SSE 09:46:28 48° ENE 09:49:17 10° N
STARLINK-1232 4.1 09:43:25 10° NNW 09:47:31 65° NE 09:51:37 10° SE
STARLINK-1319 3.7 09:44:08 13° SW 09:47:40 67° NW 09:51:47 10° NNE
ASTRO E2 3.3 09:45:11 10° W 09:48:52 36° SSW 09:52:33 10° SE
STARLINK-1278 4.1 09:45:49 14° WSW 09:49:17 48° NW 09:53:20 10° NNE
STARLINK-61 3.6 09:45:51 10° SSW 09:49:42 75° SE 09:53:36 10° NE
STARLINK-1280 4.1 09:47:35 13° WSW 09:51:07 46° NW 09:55:10 10° NNE
Cosmos 773 Rocket 4.0 09:47:12 10° SSW 09:52:20 73° WNW 09:57:34 10° N
Delta 2 Rocket 4.4 09:46:52 11° SW 09:52:27 52° SSE 09:59:04 10° E
STARLINK-1208 3.9 09:48:20 10° NW 09:52:28 75° NE 09:56:35 10° SE
STARLINK-1277 3.8 09:48:56 12° SW 09:52:39 58° NW 09:56:44 10° NNE
CZ-4B R/B 2.9 09:49:41 10° NNE 09:53:22 69° E 09:56:57 10° S
Palapa 6 Rocket 4.4 09:45:55 10° W 09:53:56 88° N 10:01:00 10° E
Meteor 2-3 Rocket 4.1 09:50:04 10° S 09:55:42 69° E 10:01:17 10° NNE
Chunghua 1 4.4 09:51:59 10° WNW 09:55:42 89° SSW 09:59:23 10° ESE
STARLINK-1271 3.7 09:53:19 10° NW 09:57:28 86° ENE 10:01:35 10° SE
STARLINK-1276 4.0 09:53:43 10° SW 09:57:39 50° NW 10:01:40 10° NNE
SL-16 R/B 3.6 09:54:41 10° WSW 09:58:52 21° WNW 10:03:04 10° NNW
Centaur D-1AR AC-40 2.0 09:56:09 10° W 09:59:25 88° SSE 10:08:17 10° E
CZ-4B R/B 2.2 09:57:49 10° SSW 10:00:26 26° W 10:03:03 10° NW
GPS 2-14 Rocket1 2.5 09:58:07 10° W 10:01:52 71° S 10:05:37 10° ESE
Lacrosse 4 Rocket 2.3 09:58:41 10° NW 10:02:09 26° WSW 10:05:35 10° SSW
STARLINK-1154 3.6 09:58:18 10° NW 10:02:25 83° SW 10:06:34 10° SE
STARLINK-1305 4.2 09:58:40 10° WSW 10:02:37 44° NW 10:06:34 10° NNE
ALOS 2.3 09:58:12 10° NNE 10:02:52 89° ESE 10:07:32 10° SSW
CZ-4B R/B 4.3 10:01:31 10° N 10:05:37 49° WNW 10:09:52 10° SSW
Cosmos 1484 Rocket 3.0 10:02:33 10° N 10:06:24 55° WNW 10:10:17 10° SSW
STARLINK-1197 3.6 10:03:16 10° NW 10:07:23 72° SW 10:11:30 10° SSE
CZ-3 R/B 3.1 09:40:33 11° WSW 10:07:29 87° NNW 10:14:13 10° ENE
STARLINK-1262 4.4 10:03:44 10° WSW 10:07:36 38° NW 10:11:29 10° NNE
Cosmos 2333 Rocket 3.1 10:05:32 10° S 10:10:59 53° ESE 10:16:27 10° NNE
